Other Public Products
Issued by NWS Grand Forks, ND

Home | Current Version | Previous Version | Graphics & Text | Print | Product List | Glossary On
Versions: 1 2 3 4 5 6 7 8 9 10 11 12 13 14 15 16 17 18 19 20 21 22 23 24 25 26 27 28 29 30 31 32 33 34 35 36 37 38 39 40 41 42 43 44 45 46 47 48 49 50
000
FPUS83 KFGF 022331
OPUFGF
PRAIRIE TO PINES WEATHER ROUNDUP
NATIONAL WEATHER SERVICE EASTERN NORTH DAKOTA/GRAND FORKS ND
600 PM CDT THU JUL 02 2015

 **SATELLITE DATA USED TO AUGMENT SKY COVER AT AUTOMATED STATIONS**
 *****  WEATHER ACROSS EASTERN NORTH DAKOTA  *****

CITY           SKY/WX    TMP DP  RH WIND       PRES   REMARKS
GRAND FORKS    CLOUDY    76  66  71 SW9       29.89F
GRAND FORKS AF PTSUNNY   78  67  68 W8        29.90S
GRAND CITY NWS   N/A     77 N/A N/A SW7         N/A
BUXTON         NOT AVBL
DEVILS LAKE    SUNNY     79  63  57 W10       29.91S
FARGO          MOSUNNY   75  54  47 S12       29.94R
WAHPETON ARPT  CLEAR     73  52  46 S6        29.96S
$$

 *****  WEATHER ACROSS CENTRAL AND WESTERN NORTH DAKOTA  *****

CITY           SKY/WX    TMP DP  RH WIND       PRES   REMARKS
JAMESTOWN      PTSUNNY   75  64  68 S7        29.93F
BISMARCK       MOSUNNY   79  60  52 NW12      29.97S HAZE
MINOT          CLOUDY    78  63  59 NW10      29.95S HAZE
MINOT AFB      PTSUNNY   82  68  63 NW10      29.94F HAZE
GARRISON         N/A     79  64  60 N9        29.97F
WILLISTON      SUNNY     84  57  39 NW8G18    30.00S
DICKINSON      SUNNY     80  58  46 N10       30.01F
HETTINGER      SUNNY     78  59  51 N12       30.04F
$$

 *****  OTHER OBSERVATIONS NORTHEAST NORTH DAKOTA  *****

CITY           SKY/WX    TMP DP  RH WIND       PRES   REMARKS
WALHALLA       FAIR      77  64  65 MISG      29.89R
LANGDON        FAIR      75  64  69 NW10      29.93R HAZE
CAVALIER       FAIR      79  63  57 W6        29.88S HAZE
GRAFTON        FAIR      75  68  78 SE5       29.88F
CANDO          FAIR      75  64  69 W9        29.93R HAZE
FORT TOTTEN      N/A     80  66  61 CALM      29.95S
ROLLA          FAIR      73  64  73 NW12      29.95S
RUGBY          NOT AVBL
 ***** THE ABOVE OBSERVATIONS ARE NON NWS ARE NOT QUALITY
        CONTROLLED AND MAY MIS-REPORT RAIN FOR SNOW...
$$

 *****  OTHER OBSERVATIONS SOUTHEAST NORTH DAKOTA *****

CITY           SKY/WX    TMP DP  RH WIND       PRES   REMARKS
COOPERSTOWN    NOT AVBL
VALLEY CITY    FAIR      75  66  73 S7        29.94S
OAKES            N/A     73  68  83 S10       29.95S
GWINNER          N/A    N/A N/A N/A S8          N/A
SHEYENNE NWR     N/A     78  57  47 SW7       29.95S
BUFFALO        NOT AVBL
WYNDMERE       NOT AVBL
 ***** THE ABOVE OBSERVATIONS ARE NON NWS ARE NOT QUALITY
       CONTROLLED AND MAY MIS-REPORT RAIN FOR SNOW...
$$

  *****  WEATHER ACROSS NORTHERN MINNESOTA  *****

CITY           SKY/WX    TMP DP  RH WIND       PRES   REMARKS
FLAG ISLAND    MOSUNNY   73  61  64 SW12      29.87R
WARROAD        MOSUNNY   73  64  73 SW10      29.89S
ROSEAU         MOSUNNY   73  64  73 SW10      29.89S
HALLOCK        MOSUNNY   77  68  73 SW12      29.86F
THF RVR FALLS  MOSUNNY   72  59  64 S7        29.92F
HALSTAD        NOT AVBL
FOSSTON        MOSUNNY   72  54  53 S10       29.95S
BAUDETTE       MOSUNNY   74  54  49 SW10      29.90F
WASKISH        MOSUNNY   73  59  60 SW9       29.92F
CROOKSTON      PTSUNNY   73  61  64 SW7       29.91F
$$
  *****  WEATHER ACROSS CENTRAL AND WEST MINNESOTA  *****

CITY           SKY/WX    TMP DP  RH WIND       PRES   REMARKS
BEMIDJI        MOSUNNY   73  57  56 SW8       29.94F
PARK RAPIDS    MOSUNNY   76  54  46 SW12      29.96F
WADENA         SUNNY     72  54  53 SW8       29.97F
DETROIT LAKES  SUNNY     73  52  46 S9        29.98S
MOORHEAD       MOSUNNY   73  54  49 S7        29.95S
FERGUS FALLS   SUNNY     73  52  46 S9        29.96S
ELBOW LAKE     FAIR      73  52  47 S7        29.97F
MORRIS MN      SUNNY     75  48  38 S6        29.97F
STAPLES        SUNNY     73  54  49 SW7       29.97F
WHEATON        SUNNY     72  52  49 S6        29.98S
$$
  *****  WEATHER ELSEWHERE ACROSS MINNESOTA  *****

CITY           SKY/WX    TMP DP  RH WIND       PRES   REMARKS
DULUTH         MOSUNNY   75  56  51 SW10      29.96F
INTRNTL FALLS  MOSUNNY   74  59  59 W8        29.90F
ELY            MOSUNNY   73  57  56 SW7       29.93S
CLOQUET        SUNNY     73  54  49 S7        29.97S
BRAINERD       SUNNY     75  53  46 S12       29.98F
HIBBING        MOSUNNY   75  57  53 VRB6      29.95F
ALEXANDRIA     SUNNY     73  50  44 S8        30.01F
SAINT CLOUD    SUNNY     75  53  46 SW7       29.99F
MINNEAPOLIS    PTSUNNY   75  54  47 VRB6      29.98F
$$

  *****  WEATHER ACROSS SOUTH DAKOTA  *****

CITY           SKY/WX    TMP DP  RH WIND       PRES   REMARKS
SIOUX FALLS    CLOUDY    69  57  65 SE3       29.99F
BROOKINGS      CLOUDY    72  52  49 S7        30.01S
WATERTOWN      MOSUNNY   74  49  41 S6        29.98F
HURON          MOSUNNY   72  62  71 S8        29.97S
SISSETON         N/A     75  55  49 S6        29.95F
ABERDEEN       SUNNY     72  63  73 SE8       29.97F
MITCHELL       CLOUDY    68  58  70 E9        29.99S
PIERRE         MOSUNNY   76  64  66 N6        29.96S
MOBRIDGE       MOSUNNY   80  66  62 N8        29.95S HAZE
RAPID CITY     SUNNY     79  56  45 N22       30.06F
$$

  *****  SOME WEATHER IN NEARBY STATES *****

CITY           SKY/WX    TMP DP  RH WIND       PRES   REMARKS
GLASGOW MT     PTSUNNY   81  54  39 NW9       30.03F
GREAT FALLS MT SUNNY     85  49  28 E12G18    30.09F
CHEYENNE WY    MOSUNNY   75  50  41 NE8       30.21S
SCOTTSBLUFF NE PTSUNNY   84  55  36 NE15      30.09F
OMAHA NE       CLOUDY    70  64  81 E7        29.95F HAZE
DES MOINES IA  CLOUDY    68  54  60 CALM      29.97F
DAVENPORT IA   CLOUDY    69  55  60 NE10      29.97F
CHICAGO IL     MOSUNNY   65  52  62 NE13      29.98F
EAU CLAIRE WI  MOSUNNY   75  53  46 SE5       29.99S
LA CROSSE WI   SUNNY     76  53  44 E7        29.98F
$$

  *****  SOME NATIONAL WEATHER *****

CITY           SKY/WX    TMP DP  RH WIND       PRES   REMARKS
LA GUARDIA NY  CLOUDY    75  59  57 S8        29.86S
RALEIGH NC     LGT RAIN  73  72  94 NE6       29.88R
ATLANTA GA     PTSUNNY   84  66  54 W13       29.97F
NEW ORLEANS LA PTSUNNY   89  72  56 S13       30.02F HX  96
OKLAHOMA CITY  CLOUDY    87  72  60 S13       29.88S HX  93
ALBUQUERQUE NM CLOUDY    78  55  44 E24G31    30.07R
SALT LAKE CITY PTSUNNY   98  37  12 W8        29.99F HX  93
LOS ANGELES CA MOSUNNY   73  63  70 W14       29.95F
BOISE ID       SUNNY    103  43  13 NW13      29.91F HX  98
SEATTLE WA     MOSUNNY   91  52  26 NW14      29.99F
$$

*** WEATHER ACROSS MANITOBA...SASKATCHEWAN AND ONTARIO ***
                ***ONTARIO***

CITY           SKY/WX    TMP DP  RH WIND       PRES   REMARKS
GERALDTON      LGT RAIN  72  55  56 W7        29.87S
THUNDER BAY    CLOUDY    64  57  77 E7        29.90F
SIOUX LOOKOUT  TSTM      64  63  94 VRB2      29.85F FOG
TORONTO        MOSUNNY   68  39  34 N10G17    29.96S
BIG TROUT LK   LGT RAIN  66  59  77 VRB3      29.71S
PICKLE LAKE    CLOUDY    61  59  94 S6        29.81F
DRYDEN         PTSUNNY   72  54  53 SW14G21   29.85F
KENORA         PTSUNNY   72  61  68 SW12      29.87F
$$
                *** MANITOBA***

CITY           SKY/WX    TMP DP  RH WIND       PRES   REMARKS
BRANDON        SMOKE     73  66  78 NW9       29.92S VSB 1
DAUPHIN        SUNNY     79  61  53 NW5       29.88F HAZE
ISLAND LAKE    TSTM      72  57  60 N25G38    29.75R
PILOT MOUND      N/A     75  66  73 NW7         N/A
THE PAS        SUNNY     77  55  47 N12       29.86S SMOKE
THOMPSON       PTSUNNY   75  48  38 N12G24    29.77R
WINNIPEG       CLOUDY    75  68  78 NW10      29.86F SMOKE
LYNN LAKE      SUNNY     73  46  38 N13G18    29.85S
CHURCHILL      MOSUNNY   57  48  72 NE13      29.76R
GILLAM         TSTM      63  55  77 NE18G32   29.74R
$$
                ***SASKATCHEWAN***

CITY           SKY/WX    TMP DP  RH WIND       PRES   REMARKS
ESTEVAN        CLOUDY    79  63  57 NW14      29.99S SMOKE
KINDERSLEY     MOSUNNY   81  54  39 N5        30.04F
LLOYDMINSTER   PTSUNNY   81  50  34 W8        30.01F
PRINCE ALBERT  MOSUNNY   82  54  36 NW13      29.95  SMOKE
REGINA         CLOUDY    79  61  53 N13       30.00F SMOKE



USA.gov is the U.S. government's official web portal to all federal, state and local government web resources and services.